W5SDC Weather Reports


Display with metric or nautical units.
time (UTC)temp
F
wind
direction
speed
MPH
gust
MPH
rain 1hr
in
rain 24hr
in
rain mn
in
humidity
%
barometer
mb
20210622233529 85 93 2.0 4.0 0.00 1.01 0.21 68 1014.0
20210622233024 85 72 3.0 6.0 0.00 1.01 0.21 69 1014.0
20210622232518 85 69 3.0 5.0 0.00 1.01 0.21 69 1014.1
20210622232031 85 45 3.0 4.0 0.00 1.01 0.21 70 1014.2
20210622231526 85 86 4.0 6.0 0.00 1.01 0.21 71 1014.2
20210622231021 84 124 3.0 6.0 0.00 1.01 0.21 71 1014.2
20210622230517 84 88 3.0 5.0 0.00 1.01 0.21 72 1014.2
20210622230029 84 115 3.0 4.0 0.00 1.01 0.21 72 1014.4
20210622225523 84 72 4.0 5.0 0.00 1.01 0.21 72 1014.6
20210622225019 84 123 4.0 6.0 0.00 1.01 0.21 72 1014.6
20210622224520 84 133 3.0 5.0 0.00 1.01 0.21 72 1014.6
20210622224033 84 89 3.0 5.0 0.00 1.01 0.21 71 1014.6
20210622223527 84 103 3.0 6.0 0.00 1.01 0.21 70 1014.7
20210622223023 84 111 2.0 4.0 0.00 1.01 0.21 70 1014.7
20210622222518 85 118 2.0 4.0 0.00 1.01 0.21 70 1014.8
20210622222031 85 109 3.0 4.0 0.00 1.01 0.21 70 1014.9
20210622221526 84 6 3.0 4.0 0.00 1.01 0.21 70 1014.9
20210622221020 83 48 4.0 7.0 0.00 1.01 0.21 72 1015.1
20210622220533 83 357 4.0 7.0 0.00 1.01 0.21 72 1015.1
20210622220028 84 21 4.0 6.0 0.00 1.01 0.21 71 1015.1
20210622215522 84 12 3.0 5.0 0.00 1.01 0.21 70 1015.1
20210622215017 84 24 2.0 3.0 0.00 1.01 0.21 70 1015.2
20210622214518 84 96 3.0 5.0 0.00 1.01 0.21 70 1015.3
20210622214030 84 38 4.0 5.0 0.00 1.01 0.21 70 1015.3
20210622213527 83 48 4.0 8.0 0.00 1.01 0.21 71 1015.4
20210622213022 84 72 4.0 6.0 0.00 1.01 0.21 69 1015.5
20210622212516 84 288 2.0 3.0 0.00 1.01 0.21 70 1015.5
20210622212031 84 89 3.0 5.0 0.00 1.01 0.21 70 1015.6
20210622211522 84 32 3.0 6.0 0.00 1.01 0.21 72 1015.6
20210622211018 83 63 4.0 6.0 0.00 1.01 0.21 73 1015.9
20210622210530 83 21 3.0 6.0 0.00 1.01 0.21 73 1015.9
20210622210026 83 70 3.0 5.0 0.00 1.01 0.21 72 1015.9
20210622205520 84 338 3.0 5.0 0.00 1.01 0.21 70 1016.0
20210622205022 84 15 3.0 5.0 0.00 1.01 0.21 70 1016.1
20210622204517 84 352 4.0 6.0 0.00 1.01 0.21 70 1016.4
20210622204030 84 301 3.0 5.0 0.00 1.01 0.21 69 1016.4
20210622203526 84 106 4.0 7.0 0.00 1.01 0.21 71 1016.6
20210622203022 82 5 3.0 6.0 0.00 1.01 0.21 74 1016.7
20210622202517 82 85 5.0 7.0 0.00 1.01 0.21 73 1016.7
20210622202032 82 29 5.0 9.0 0.00 1.01 0.21 73 1016.6
20210622201525 82 27 5.0 9.0 0.00 1.01 0.21 75 1016.6
20210622201020 82 56 5.0 9.0 0.00 1.01 0.21 73 1016.8
20210622200532 81 7 4.0 7.0 0.00 1.01 0.21 76 1016.8
20210622200027 81 45 4.0 7.0 0.00 1.01 0.21 76 1016.9
20210622195522 81 319 4.0 5.0 0.00 1.01 0.21 76 1017.0
20210622195016 80 43 3.0 4.0 0.00 1.01 0.21 78 1017.0
20210622194518 80 98 4.0 7.0 0.00 1.01 0.21 78 1017.0
20210622194031 80 69 5.0 7.0 0.00 1.01 0.21 78 1017.0
20210622193526 80 39 4.0 7.0 0.00 1.01 0.21 78 1017.1
20210622193021 79 65 4.0 6.0 0.00 1.01 0.21 78 1017.1
20210622192516 80 32 4.0 7.0 0.00 1.01 0.21 78 1017.1
20210622192030 80 25 4.0 6.0 0.00 1.01 0.21 77 1017.1
20210622191524 80 16 5.0 9.0 0.00 1.01 0.21 76 1017.1
20210622191020 80 21 3.0 6.0 0.00 1.01 0.21 76 1017.1
20210622190532 81 39 4.0 6.0 0.00 1.01 0.21 76 1017.1
20210622190027 80 40 4.0 5.0 0.00 1.01 0.21 76 1017.2
20210622185521 80 349 2.0 4.0 0.00 1.01 0.21 77 1017.2
20210622185016 80 348 4.0 7.0 0.00 1.01 0.21 77 1017.2
20210622184518 79 359 3.0 6.0 0.00 1.01 0.21 79 1017.5
20210622184031 78 24 4.0 7.0 0.00 1.01 0.21 80 1017.5
20210622183527 78 28 4.0 6.0 0.00 1.01 0.21 81 1017.6
20210622183021 77 55 5.0 6.0 0.00 1.01 0.21 81 1017.6
20210622182517 77 82 3.0 5.0 0.00 1.01 0.21 80 1017.6
20210622182030 78 50 4.0 6.0 0.00 1.01 0.21 80 1017.5
20210622181524 78 48 4.0 5.0 0.00 1.01 0.21 80 1017.5
20210622181021 78 322 2.0 3.0 0.00 1.01 0.21 81 1017.5
20210622180533 78 21 4.0 6.0 0.00 1.01 0.21 80 1017.5
20210622180028 78 49 3.0 5.0 0.00 1.01 0.21 80 1017.5
20210622175524 78 300 3.0 4.0 0.00 1.01 0.21 80 1017.5
20210622175017 78 311 2.0 4.0 0.00 1.01 0.21 79 1017.5
20210622174518 78 8 3.0 4.0 0.00 1.01 0.21 79 1017.6
20210622174031 79 325 2.0 4.0 0.00 1.01 0.21 79 1017.6
20210622173526 78 295 3.0 3.0 0.00 1.01 0.21 80 1017.6
20210622173020 79 12 3.0 5.0 0.00 1.01 0.21 78 1017.5
20210622172515 79 314 3.0 5.0 0.00 1.01 0.21 79 1017.5
20210622172030 79 306 3.0 5.0 0.00 1.01 0.21 79 1017.5
20210622171524 78 315 3.0 4.0 0.00 1.01 0.21 79 1017.5
20210622171019 78 340 4.0 5.0 0.00 1.01 0.21 79 1017.6
20210622170530 79 297 4.0 5.0 0.00 1.01 0.21 79 1017.6
20210622170024 79 326 3.0 6.0 0.00 1.01 0.21 78 1017.5
20210622165519 79 354 3.0 6.0 0.00 1.01 0.21 78 1017.5
20210622165020 79 345 4.0 7.0 0.00 1.01 0.21 79 1017.5
20210622164533 78 325 3.0 7.0 0.00 1.01 0.21 79 1017.6
20210622164027 77 355 3.0 4.0 0.00 1.01 0.21 81 1017.6
20210622163522 76 346 3.0 5.0 0.00 1.01 0.21 82 1017.8
20210622163017 76 1 3.0 6.0 0.00 1.01 0.21 83 1017.8
20210622162532 75 340 2.0 3.0 0.00 1.01 0.21 84 1017.8
20210622162026 75 61 2.0 4.0 0.00 1.01 0.21 84 1017.7
20210622161521 74 343 3.0 5.0 0.00 1.01 0.21 85 1017.7
20210622161016 74 17 2.0 5.0 0.00 1.01 0.21 86 1017.7
20210622160528 73 323 3.0 3.0 0.00 1.01 0.21 87 1017.7
20210622160024 73 11 2.0 4.0 0.00 1.01 0.21 87 1017.6
20210622155517 73 342 3.0 4.0 0.00 1.01 0.21 87 1017.5
20210622155019 73 326 2.0 3.0 0.00 1.01 0.21 87 1017.5
20210622154532 73 295 3.0 4.0 0.00 1.01 0.21 88 1017.5
20210622154027 72 320 2.0 3.0 0.00 1.01 0.21 88 1017.5
20210622153522 72 7 3.0 5.0 0.00 1.01 0.21 88 1017.3
20210622153018 72 63 3.0 6.0 0.00 1.01 0.21 87 1017.2
20210622152531 72 287 3.0 4.0 0.00 1.01 0.21 87 1017.2
20210622152025 73 324 2.0 3.0 0.00 1.01 0.21 87 1017.1
20210622151519 73 40 4.0 6.0 0.00 1.01 0.21 87 1017.1
20210622151032 73 357 4.0 7.0 0.00 1.01 0.21 87 1017.1
20210622150528 73 340 4.0 6.0 0.00 1.01 0.21 87 1017.1
20210622150023 73 349 3.0 6.0 0.00 1.01 0.21 87 1017.2
20210622145516 73 55 4.0 5.0 0.00 1.01 0.21 87 1017.2
20210622145017 73 46 3.0 5.0 0.00 1.01 0.21 87 1017.2
20210622144530 72 17 3.0 7.0 0.00 1.01 0.21 88 1017.3
20210622144026 72 41 4.0 8.0 0.00 1.01 0.21 88 1017.3
20210622143520 72 355 3.0 6.0 0.00 1.01 0.21 88 1017.3
20210622143033 72 349 3.0 4.0 0.00 1.01 0.21 88 1017.3
20210622142528 72 332 4.0 7.0 0.00 1.01 0.21 88 1017.3
20210622142023 72 354 3.0 3.0 0.00 1.01 0.21 89 1017.3
20210622141518 72 25 5.0 7.0 0.00 1.01 0.21 89 1017.3
20210622141030 72 52 6.0 9.0 0.00 1.01 0.21 89 1017.1
20210622140522 71 32 4.0 9.0 0.00 1.01 0.21 89 1017.1
20210622140016 71 38 5.0 7.0 0.00 1.01 0.21 89 1017.2
20210622135518 71 44 5.0 8.0 0.00 1.01 0.21 90 1017.2
20210622135030 71 51 4.0 6.0 0.00 1.01 0.21 90 1017.2
20210622134525 71 7 3.0 7.0 0.00 1.01 0.21 90 1017.2
20210622134019 71 25 4.0 6.0 0.00 1.01 0.21 90 1017.2
20210622133534 71 28 4.0 6.0 0.00 1.01 0.21 90 1017.0
20210622133028 71 355 3.0 5.0 0.00 1.01 0.21 90 1016.9
20210622132523 71 25 3.0 5.0 0.00 1.01 0.21 90 1016.9
20210622132017 70 343 4.0 7.0 0.00 1.01 0.21 90 1016.9
20210622131529 70 354 3.0 5.0 0.00 1.01 0.21 91 1016.9
20210622131023 70 347 3.0 7.0 0.00 1.01 0.21 91 1016.8
20210622130518 70 319 4.0 6.0 0.00 1.01 0.21 91 1016.8
20210622130019 70 21 4.0 6.0 0.00 1.01 0.21 91 1016.8
20210622125532 70 316 3.0 4.0 0.00 1.01 0.21 91 1016.8
20210622125026 70 348 3.0 6.0 0.00 1.01 0.21 91 1016.8
20210622124523 70 355 3.0 6.0 0.00 1.01 0.21 91 1016.8
20210622124017 70 321 3.0 5.0 0.00 1.01 0.21 91 1016.8
20210622123530 70 347 4.0 5.0 0.00 1.01 0.21 91 1016.6
20210622123025 70 15 3.0 4.0 0.00 1.01 0.21 91 1016.5
20210622122520 70 360 3.0 5.0 0.00 1.01 0.21 91 1016.4
20210622122033 70 331 3.0 6.0 0.00 1.01 0.21 91 1016.3
20210622121529 69 342 3.0 5.0 0.00 1.01 0.21 91 1016.3
20210622121022 69 320 3.0 5.0 0.00 1.01 0.21 91 1016.1
20210622120517 69 326 3.0 5.0 0.00 1.01 0.21 91 1016.1
20210622120018 69 328 3.0 4.0 0.00 1.01 0.21 91 1016.2
20210622115533 69 325 3.0 5.0 0.00 1.01 0.21 91 1016.3
20210622115029 69 48 4.0 7.0 0.00 1.01 0.21 91 1016.3
20210622114524 69 12 4.0 6.0 0.00 1.01 0.21 91 1016.0
20210622114017 69 40 4.0 7.0 0.00 1.01 0.21 91 1016.0
20210622113530 69 4 4.0 8.0 0.00 1.01 0.21 91 1015.9
20210622113026 69 346 4.0 7.0 0.00 1.01 0.21 91 1015.9
20210622112520 69 10 3.0 7.0 0.00 1.01 0.21 91 1015.8
20210622112033 69 343 3.0 4.0 0.00 1.01 0.21 91 1015.6
20210622111527 69 326 3.0 5.0 0.00 1.01 0.21 91 1015.6
20210622111023 69 324 3.0 4.0 0.00 1.01 0.21 91 1015.4
20210622110518 69 310 3.0 4.0 0.00 1.01 0.21 91 1015.4
20210622110019 70 313 3.0 4.0 0.00 1.01 0.21 91 1015.1
20210622105532 70 324 4.0 6.0 0.00 1.01 0.21 91 1014.9
20210622105027 70 318 4.0 6.0 0.00 1.01 0.21 91 1014.9
20210622104522 70 315 4.0 5.0 0.00 1.01 0.21 91 1014.7
20210622104017 70 294 4.0 5.0 0.00 1.01 0.21 91 1014.7
20210622103531 70 293 3.0 5.0 0.00 1.01 0.21 91 1014.6
20210622103026 70 307 4.0 6.0 0.00 1.01 0.21 91 1014.6
20210622102520 70 293 4.0 6.0 0.00 1.01 0.21 90 1014.6
20210622102031 70 285 4.0 5.0 0.00 1.01 0.21 90 1014.6
20210622101526 70 315 3.0 4.0 0.00 1.01 0.21 90 1014.6
20210622101021 70 309 3.0 4.0 0.00 1.01 0.21 90 1014.6
20210622100516 70 326 4.0 5.0 0.00 1.01 0.21 90 1014.6
20210622100019 71 359 4.0 6.0 0.00 1.01 0.21 90 1014.7
20210622095533 71 309 4.0 5.0 0.00 1.01 0.21 90 1014.9
20210622095028 71 303 4.0 5.0 0.00 1.01 0.21 91 1014.9
20210622094522 71 311 4.0 5.0 0.00 1.01 0.21 91 1014.9
20210622094017 71 319 4.0 6.0 0.00 1.01 0.21 91 1014.9
20210622093530 71 291 3.0 6.0 0.00 1.01 0.21 91 1014.9
20210622093025 71 319 3.0 4.0 0.00 1.01 0.21 91 1014.9
20210622092520 71 339 4.0 5.0 0.00 1.01 0.21 91 1014.9
20210622092016 71 26 3.0 5.0 0.00 1.01 0.21 91 1014.9
20210622091528 71 1 4.0 7.0 0.00 1.01 0.21 90 1014.9
20210622091023 71 19 6.0 11.0 0.00 1.01 0.21 90 1014.9
20210622090517 71 319 4.0 6.0 0.00 1.01 0.21 90 1014.9
20210622090018 71 4 5.0 7.0 0.00 1.01 0.21 90 1014.9
20210622085532 71 14 4.0 6.0 0.01 1.01 0.21 90 1014.9
20210622085028 71 351 3.0 5.0 0.01 1.01 0.21 90 1014.9
20210622084522 71 23 4.0 6.0 0.01 1.01 0.21 90 1014.9
20210622084017 71 18 5.0 7.0 0.01 1.01 0.21 90 1014.9
20210622083531 72 351 5.0 9.0 0.01 1.01 0.21 90 1015.1
20210622083025 72 359 5.0 9.0 0.01 1.01 0.21 90 1015.3
20210622082520 72 26 5.0 8.0 0.01 1.01 0.21 90 1015.3
20210622082032 72 23 5.0 8.0 0.01 1.01 0.21 91 1015.3
20210622081526 72 19 5.0 7.0 0.01 1.01 0.21 91 1015.3
20210622081021 72 31 6.0 8.0 0.01 1.01 0.21 90 1015.5
20210622080516 72 21 6.0 10.0 0.01 1.01 0.21 90 1015.5
20210622080018 72 335 7.0 13.0 0.01 1.01 0.21 90 1015.2
20210622075531 73 334 6.0 8.0 0.00 1.00 0.20 90 1015.1
20210622075027 73 5 5.0 9.0 0.00 1.00 0.20 92 1015.1
20210622074522 73 19 6.0 8.0 0.00 1.00 0.20 92 1014.9
20210622074017 73 339 5.0 7.0 0.00 1.00 0.20 92 1014.9
20210622073530 73 306 4.0 5.0 0.00 1.00 0.20 92 1014.6
20210622073024 73 351 3.0 5.0 0.00 1.00 0.20 92 1014.4
20210622072520 73 299 3.0 4.0 0.00 1.00 0.20 92 1014.3
20210622072033 73 321 3.0 5.0 0.00 1.00 0.20 91 1014.2
20210622071527 73 330 3.0 4.0 0.00 1.00 0.20 91 1014.2
20210622071022 73 350 3.0 4.0 0.00 1.00 0.20 91 1014.1
20210622070516 73 287 2.0 3.0 0.00 1.00 0.20 91 1014.1
20210622070018 73 328 3.0 4.0 0.00 1.00 0.20 91 1014.3
20210622065531 73 320 3.0 4.0 0.00 1.00 0.20 91 1014.4
20210622065026 73 337 3.0 3.0 0.00 1.00 0.20 91 1014.4
20210622064521 73 290 2.0 4.0 0.02 1.00 0.20 91 1014.4
20210622064033 73 314 3.0 4.0 0.11 1.00 0.20 92 1014.4
20210622063528 73 309 2.0 4.0 0.18 1.00 0.20 92 1014.8
20210622063023 73 322 3.0 4.0 0.19 1.00 0.20 93 1014.9
20210622062518 73 341 4.0 7.0 0.20 1.00 0.20 93 1015.1
20210622062031 72 293 3.0 5.0 0.20 1.00 0.20 92 1015.3
20210622061525 71 292 2.0 4.0 0.20 1.00 0.20 89 1015.3
20210622061020 72 306 3.0 4.0 0.20 1.00 0.20 89 1015.4
20210622060520 72 20 3.0 6.0 0.20 1.00 0.20 88 1015.4
20210622060017 72 46 7.0 10.0 0.20 1.00 0.20 89 1015.2
20210622055530 72 14 6.0 14.0 0.20 1.00 0.20 91 1015.1
20210622055025 73 69 4.0 7.0 0.20 1.00 0.20 91 1015.1
20210622054520 73 306 3.0 4.0 0.18 0.98 0.18 92 1015.6
20210622054032 74 1 2.0 4.0 0.09 0.89 0.09 92 1015.6
20210622053528 74 354 1.0 4.0 0.02 0.82 0.02 92 1015.6
20210622053023 74 315 4.0 7.0 0.02 0.81 0.01 92 1015.6
20210622052517 74 313 4.0 5.0 0.01 0.80 0.00 92 1015.4
20210622052028 75 295 4.0 6.0 0.01 0.80 0.00 92 1015.1
20210622051523 75 305 5.0 7.0 0.02 0.80 0.00 91 1015.1
20210622051017 75 323 3.0 5.0 0.05 0.80 0.00 91 1015.1
20210622050520 75 313 4.0 5.0 0.11 0.80 0.00 91 1015.1
20210622050033 75 304 4.0 5.0 0.21 0.80 0.00 92 1015.1
20210622045527 76 329 4.0 6.0 0.31 0.80 0.80 92 1015.1
20210622045022 78 294 4.0 5.0 0.41 0.80 0.80 93 1015.1
20210622044518 78 303 2.0 3.0 0.59 0.80 0.80 93 1015.3
20210622044031 78 213 2.0 3.0 0.69 0.80 0.80 93 1015.3
20210622043526 78 267 4.0 6.0 0.79 0.80 0.80 92 1015.0
20210622043020 78 325 5.0 7.0 0.79 0.79 0.79 92 1014.9
20210622042533 79 299 4.0 6.0 0.79 0.79 0.79 93 1014.5
20210622042027 79 218 4.0 10.0 0.79 0.79 0.79 93 1013.7
20210622041521 78 200 7.0 11.0 0.78 0.78 0.78 93 1013.7
20210622041017 79 200 5.0 8.0 0.75 0.75 0.75 93 1014.4
20210622040518 78 169 4.0 6.0 0.69 0.69 0.69 93 1014.4
20210622040031 78 101 4.0 7.0 0.59 0.59 0.59 92 1014.4
20210622035526 77 25 7.0 10.0 0.49 0.49 0.49 90 1014.4
20210622035021 77 28 8.0 11.0 0.39 0.39 0.39 86 1014.4
20210622034517 81 30 6.0 11.0 0.21 0.21 0.21 86 1012.8
20210622034030 82 48 5.0 8.0 0.11 0.11 0.11 84 1012.8
20210622033525 84 145 6.0 10.0 0.01 0.01 0.01 81 1012.4
20210622033020 85 135 7.0 11.0 0.00 0.00 0.00 77 1012.3
20210622032530 85 130 7.0 10.0 0.00 0.00 0.00 77 1012.3
20210622032026 85 94 7.0 10.0 0.00 0.00 0.00 76 1012.3
20210622031521 85 158 7.0 9.0 0.00 0.00 0.00 76 1012.3
20210622031017 85 132 5.0 8.0 0.00 0.00 0.00 76 1011.5
20210622030517 85 171 7.0 9.0 0.00 0.00 0.00 75 1011.5
20210622030031 86 183 7.0 12.0 0.00 0.00 0.00 75 1011.5
20210622025526 86 135 5.0 9.0 0.00 0.00 0.00 74 1011.5
20210622025020 86 123 4.0 7.0 0.00 0.00 0.00 74 1011.5
20210622024515 86 158 4.0 6.0 0.00 0.00 0.00 74 1010.5
20210622024028 86 148 7.0 10.0 0.00 0.00 0.00 74 1010.5
20210622023523 86 186 7.0 10.0 0.00 0.00 0.00 73 1010.7
20210622023018 87 170 7.0 11.0 0.00 0.00 0.00 73 1010.8
20210622022530 87 159 5.0 8.0 0.00 0.00 0.00 72 1010.8
20210622022024 87 165 6.0 9.0 0.00 0.00 0.00 71 1010.9
20210622021519 87 160 6.0 11.0 0.00 0.00 0.00 70 1010.9
20210622021020 88 140 5.0 6.0 0.00 0.00 0.00 70 1010.8
20210622020516 88 150 5.0 7.0 0.00 0.00 0.00 69 1010.8
20210622020028 88 107 4.0 7.0 0.00 0.00 0.00 68 1010.6
20210622015523 88 115 5.0 7.0 0.00 0.00 0.00 65 1010.4
20210622015018 89 128 4.0 6.0 0.00 0.00 0.00 63 1010.4
20210622014532 89 131 3.0 5.0 0.00 0.00 0.00 62 1010.2
20210622014027 89 133 3.0 4.0 0.00 0.00 0.00 61 1010.2
20210622013521 89 113 3.0 4.0 0.00 0.00 0.00 60 1010.1
20210622013016 89 125 3.0 5.0 0.00 0.00 0.00 60 1010.1
20210622012527 89 136 3.0 5.0 0.00 0.00 0.00 60 1010.1
20210622012023 90 119 2.0 5.0 0.00 0.00 0.00 59 1010.0
20210622011518 90 121 3.0 6.0 0.00 0.00 0.00 58 1010.0
20210622011019 90 123 3.0 5.0 0.00 0.00 0.00 58 1010.3
20210622010532 90 123 3.0 6.0 0.00 0.00 0.00 58 1010.3
20210622010027 91 119 3.0 5.0 0.00 0.00 0.00 58 1010.4
20210622005522 91 115 3.0 4.0 0.00 0.00 0.00 57 1010.4
20210622005018 92 107 2.0 5.0 0.00 0.00 0.00 57 1010.4
20210622004530 92 115 4.0 7.0 0.00 0.00 0.00 57 1010.3
20210622004026 93 125 4.0 6.0 0.00 0.00 0.00 55 1010.3
20210622003522 93 113 3.0 4.0 0.00 0.00 0.00 54 1010.3
20210622003017 94 120 3.0 5.0 0.00 0.00 0.00 52 1010.3
20210622002530 95 90 2.0 4.0 0.00 0.00 0.00 50 1010.2
20210622002024 95 86 3.0 4.0 0.00 0.00 0.00 49 1010.0
20210622001519 96 66 3.0 5.0 0.00 0.00 0.00 49 1010.0
20210622001020 96 76 3.0 4.0 0.00 0.00 0.00 49 1009.8
20210622000534 96 157 3.0 4.0 0.00 0.00 0.00 48 1009.8
20210622000029 96 118 3.0 5.0 0.00 0.00 0.00 49 1009.6
20210621235523 96 168 3.0 4.0 0.00 0.00 0.00 51 1009.4
20210621235018 96 191 4.0 7.0 0.00 0.00 0.00 51 1009.4
20210621234531 96 151 2.0 4.0 0.00 0.00 0.00 51 1009.2
20210621234027 95 177 4.0 6.0 0.00 0.00 0.00 52 1009.2